Tracking 19831 objects as of 23-Aug-2019
HD Live streaming from Space Station
objects crossing your sky now

PSLV R/B

Track PSLV R/B now!
10-day predictions


NORAD ID: 42052
Int'l Code: 2017-008DJ
Perigee: 477.7 km
Apogee: 497.3 km
Inclination: 97.4 °
Period: 94.2 minutes
Semi major axis: 6858 km
RCS: Unknown
Launch date: February 15, 2017
Source: India (IND)
Launch site: SRIHARIKOTA (SRI)

Note: This is a ROCKET BODY
aabbcc
Your satellite tracking list
Your tracking list is empty




NASA's NSSDC Master Catalog

Two Line Element Set (TLE):
1 42052U 17008DJ  19234.89989255 +.00000395 +00000-0 +16926-4 0  9998
2 42052 097.4027 306.4111 0014277 083.5100 276.7764 15.28481824140263
Source of the keplerian elements: AFSPC